Starlink 11103

operational
NORAD ID: 59718 Int'l Des: 2024-088 Owner: SPXS Country: US Constellation: starlink
LEOCIRCULAR

关于 Starlink 11103

正在加载描述...

实时位置

正在加载3D地球...

即将过境

高度历史

Altitude vs Time

uPlot chart will show altitude changes over time

两行轨道根数

1 59718U 24088L 26034.49060331 -.00000712 00000-0 -10159-5 0 9996
2 59718 53.1597 134.6570 0001073 83.7041 276.4099 15.69709373100909
Epoch: Feb 3, 2026 • Age: 23 hours

当前状态

高度 363.3 km
速度 7.70 km/s
星下点 42.88°N, 125.06°W
发射日期 May 10, 2024
运行时间 1.7 years
类型 internet

技术详情

分类 Payload
质量 960.00 kg
干质量 910.00 kg
总质量 960.00 kg
长度 0.30 m
直径 4.10 m
跨度 29.00 m
形状 Box + pan
制造商 SPXS
平台类型 Starlink V2MD
阶段状态 In Orbit
所有者/国家 SPXS/US

大型星座

Loading constellations...